Regional Weather Roundup
Issued by NWS

Home | Current Version | Previous Version | Graphics & Text | Print | Product List | Glossary On
Versions: 1 2 3 4 5 6 7 8 9 10 11 12 13 14 15 16 17 18 19 20 21 22 23 24 25 26 27 28 29 30 31 32 33 34 35 36 37 38 39 40 41 42 43 44 45 46 47 48 49 50
000
ASUS43 KLMK 280610
RWRKY
KENTUCKY REGIONAL WEATHER ROUNDUP
NATIONAL WEATHER SERVICE LOUISVILLE KY
100 AM EST SAT FEB 28 2015

NOTE "FAIR" INDICATES FEW OR NO CLOUDS BELOW 12,000 FEET
WITH NO SIGNIFICANT WEATHER AND/OR OBSTRUCTIONS TO VISIBILITY.

KYZ001>023-026-027-061>063-070>075-280700-
WESTERN AND SOUTH CENTRAL KENTUCKY

CITY           SKY/WX    TMP DP  RH WIND       PRES   REMARKS
PADUCAH        MOCLDY    21  11  65 NE7       30.61R WCI  12
HENDERSON      PTCLDY    19   7  58 NE9       30.64S WCI   9
OWENSBORO      CLEAR     19   8  62 NE8       30.63F WCI   9
HOPKINSVILLE   CLOUDY    22  12  64 E7        30.57F WCI  14
BOWLING GREEN  CLOUDY    23   8  52 NE9       30.62F WCI  13
GLASGOW        CLOUDY    22  10  59 E7        30.60F WCI  13
$$

KYZ024-025-028>034-038-045-046-053-280700-
NORTH CENTRAL KENTUCKY

CITY           SKY/WX    TMP DP  RH WIND       PRES   REMARKS
LOUISVILLE/SDF CLOUDY    20   3  48 NE9       30.65F WCI   9
LOUISVILLE/LOU MOCLDY    19   2  47 NE8       30.66S WCI   9
FORT KNOX      CLOUDY    20   4  50 NE7       30.60F WCI  11
$$

KYZ035>037-039>044-047>052-055>060-089>105-280700-
NORTHEAST KENTUCKY

CITY           SKY/WX    TMP DP  RH WIND       PRES   REMARKS
LEXINGTON      CLOUDY    16   4  59 E12       30.63R WCI   3
COVINGTON      PTCLDY    13   0  56 E5        30.65S WCI   5
FRANKFORT        N/A     17   3  54 NE3       30.63S
$$

KYZ054-064>069-076>088-106>120-280700-
SOUTHEAST KENTUCKY

CITY           SKY/WX    TMP DP  RH WIND       PRES   REMARKS
JACKSON        CLOUDY    18   6  59 NE5       30.57F WCI  11
LONDON         CLOUDY    20   5  52 NE6       30.57S WCI  12
SOMERSET       CLOUDY    19   7  58 NE6       30.61S WCI  11
MIDDLESBORO    MOCLDY    23  11  61 CALM      30.56F
MONTICELLO     MOCLDY    20   9  62 CALM      30.62S
$$




USA.gov is the U.S. government's official web portal to all federal, state and local government web resources and services.